Location: Newark
(33.6439°N, 114.9881°W)
Time: 15:11:26
(UTC+00:00)

Tiros 1 - Pass Details

Date: 21 July 2019
Orbit: 631 x 664 km, 48.4° (Epoch: 23 August)

Event Time Altitude Azimuth Distance (km) Brightness Sun altitude
Rises 01:26:28 0° 313° (NW) 2,992 11.7 15.2°
Reaches altitude 10° 01:28:59 10° 322° (NW) 2,074 10.8 14.7°
Maximum altitude 01:33:26 38° 30° (NNE) 1,007 8.2 13.8°
Drops below altitude 10° 01:37:51 10° 99° (E) 2,052 9.2 12.9°
Sets 01:40:19 0° 107° (ESE) 2,954 9.9 12.4°
